Location: *
(39.6167°S, 171.5333°W)
Time: 18:35:53
(UTC+00:00)

USA 215 - Pass Details

Date: 13 May 2021
Orbit: 1100 x 1107 km, 123.0° (Epoch: 14 June)

Event Time Altitude Azimuth Distance (km) Brightness Sun altitude
Rises 15:47:02 0° 128° (SE) 3,952 6.9 -29.9°
Reaches altitude 10° 15:49:43 10° 121° (ESE) 2,988 6.2 -29.4°
Maximum altitude 15:55:52 41° 52° (NE) 1,569 4.4 -28.2°
Drops below altitude 10° 16:01:57 10° 343° (NNW) 2,958 5.4 -27.0°
Enters shadow 16:03:03 - 340° (NNW) 3,347 5.6 -26.8°
